Location: *
(21.3839°N, 77.9075°W)
Time: 05:45:15
(UTC+00:00)

Daily predictions for brighter satellites

Satellite Brightness Start Highest point End
(mag) Time Altitude Azimuth Time Altitude Azimuth Time Altitude Azimuth
Cosmos 2297 4.2 00:05:23 10° NNW 00:11:00 64° WSW 00:16:39 10° S
Cosmos 1908 4.1 00:11:57 10° SSE 00:15:14 27° E 00:18:31 10° NNE
CSL-04 Debris 4.2 00:11:34 10° SSE 00:17:03 88° E 00:22:32 10° NNW
HJ-1C 3.8 00:14:08 10° SSE 00:17:17 41° ENE 00:20:28 10° N
CZ-4 R/B 2.8 00:15:37 10° S 00:19:14 39° W 00:22:50 10° NNW
Cosmos 1939 Rocket 3.7 00:16:58 10° S 00:20:49 52° W 00:24:38 10° NNW
Cosmos 292 Rocket 4.1 00:16:37 10° N 00:21:13 45° ENE 00:25:28 12° SE
H-2A R/B 2.9 00:17:43 13° SE 00:21:34 29° ENE 00:25:58 10° NNE
Cosmos 1943 Rocket 2.3 00:17:01 10° N 00:22:29 55° ENE 00:27:57 10° SSE
STARLINK-1104 4.4 00:20:44 10° NNW 00:24:32 35° NE 00:26:22 23° E
YAOGAN 1 3.5 00:21:27 10° S 00:25:38 49° W 00:29:49 10° NNW
CZ-2C R/B 3.9 00:23:17 18° ESE 00:25:44 27° ENE 00:29:46 10° NNE
Meteor 1-21 Rocket 4.3 00:21:54 10° N 00:27:17 52° E 00:32:42 10° SSE
CZ-2C R/B 4.3 00:23:20 10° NE 00:27:29 33° E 00:31:33 10° SSE
Cosmos 1953 3.5 00:24:31 10° SSW 00:28:18 45° W 00:32:06 10° N
Cosmos 1726 2.4 00:24:40 10° SSW 00:28:22 68° W 00:32:05 10° N
Aureole 2 Rocket 2.2 00:26:09 10° N 00:29:27 60° ENE 00:31:11 24° SSE
STARLINK-1144 4.2 00:25:38 10° NNW 00:29:31 40° NE 00:31:09 27° E
Delta 128 4.3 00:25:21 10° WNW 00:29:46 47° NNE 00:32:42 22° ENE
Cosmos 2369 Rocket 2.4 00:27:29 10° N 00:32:56 49° ENE 00:36:36 20° SE
STARLINK-1103 4.0 00:30:31 10° NNW 00:34:29 45° NE 00:35:55 32° E
USA 186 2.9 00:39:57 29° NE 00:39:57 29° NE 00:42:16 10° NNE
STARLINK-1101 3.8 00:35:27 10° NNW 00:39:28 52° NE 00:40:43 37° ESE
CZ-3B Rocket 2.9 00:36:32 10° SW 00:39:37 27° SSE 00:40:24 25° SE
Ariane Rocket 3.1 00:37:18 16° SSE 00:41:12 55° ENE 00:46:08 10° N
CSL-04 Rocket 4.4 00:36:12 10° S 00:41:20 51° WSW 00:46:28 10° NNW
Cosmos 2058 Rocket 3.4 00:40:38 20° SSE 00:43:24 42° E 00:47:39 10° NNE
Cosmos 1140 Rocket 3.3 00:39:01 10° S 00:44:12 75° ESE 00:49:22 10° NNE
STARLINK-1102 3.6 00:40:24 10° NNW 00:44:29 60° NE 00:45:31 44° ESE
GPS 2-15 Rocket1 4.2 00:42:06 10° W 00:46:36 35° SSW 00:48:24 27° SSE
STARLINK-1111 3.5 00:45:19 10° NNW 00:49:25 69° NE 00:50:16 52° ESE
OAO 3 Copernicus 4.2 00:44:44 10° WNW 00:49:47 87° NNE 00:51:30 42° ESE
Cosmos 1726 Rocket 3.5 00:46:24 10° S 00:50:46 85° W 00:55:11 10° N
Cosmos 1190 Rocket 4.1 00:46:06 10° SSW 00:51:23 76° WNW 00:56:41 10° N
STARLINK-1073 3.5 00:50:16 10° NW 00:54:24 80° NE 00:55:04 61° SE
IRS-1A Rocket 4.2 00:50:51 18° SSE 00:55:03 73° ENE 01:00:47 10° N
Cosmos 2263 4.2 00:52:41 10° N 00:58:12 59° ENE 00:59:45 43° SE
STARLINK-1121 3.5 00:55:14 10° NW 00:59:22 89° SW 00:59:51 69° SE
STARLINK-1106 3.5 01:00:13 10° NW 01:04:21 78° SW 01:04:39 72° S
ARGOS 3.0 01:03:23 40° SSE 01:05:19 71° ENE 01:10:40 10° N
Cosmos 1656 Rocket 4.1 01:00:04 10° N 01:05:03 41° ENE 01:05:03 41° ENE
Cosmos 2228 4.5 01:04:35 10° SSW 01:08:32 37° W 01:12:30 10° NNW
STARLINK-1112 3.7 01:05:13 10° NW 01:09:19 67° SW 01:09:26 67° SW
DMSP B5D2-2 3.9 01:05:33 10° NNE 01:10:47 79° ESE 01:16:02 10° S
USA 234 3.4 01:04:21 10° NNE 01:10:52 75° NW 01:17:22 10° SW
Cosmos 1825 Rocket 3.5 01:07:10 10° N 01:11:30 81° W 01:11:55 71° SSW
SJ-6B 3.5 01:13:06 47° N 01:13:06 47° N 01:16:07 10° N
CZ-2C R/B 2.4 01:08:07 10° NNE 01:13:17 69° ESE 01:13:43 65° SE
ATLAS 2AS CENTAUR R/B 3.7 01:08:04 10° N 01:13:46 28° NE 01:13:46 28° NE
STARLINK-1128 4.0 01:10:14 10° NW 01:14:14 58° WSW 01:14:14 58° WSW
STARLINK-1113 4.3 01:15:17 10° NW 01:19:03 49° WSW 01:19:03 49° WSW
GEOS 3 Rocket 3.4 01:19:18 74° ENE 01:19:22 74° ENE 01:24:30 10° NNW
Cosmos 676 Rocket 4.2 01:14:56 10° SSW 01:20:12 70° WNW 01:25:28 10° N
Cosmos 2184 Rocket 4.2 01:15:37 10° N 01:21:47 68° W 01:26:22 18° S
SPOT 3 Rocket 4.2 01:26:29 43° NNE 01:26:29 43° NNE 01:30:09 10° N
ISS -1.4 01:24:13 10° NW 01:25:39 23° NW 01:25:39 23° NW
Meteor 2-17 Rocket 4.3 01:31:47 10° N 01:37:57 85° W 01:38:06 83° SW
Hubble Space Telescope 3.0 01:39:38 10° WNW 01:41:46 23° NW 01:41:46 23° NW
Cosmos 2154 Rocket 4.1 01:38:14 10° N 01:44:31 72° W 01:45:04 68° SW
H-2A R/B 4.2 01:58:21 16° SW 02:00:49 21° W 02:04:43 10° NW
ATLAS 5 CENTAUR R/B 3.4 02:17:41 10° W 02:24:26 85° S 03:03:27 10° E
VEP-3 4.4 07:14:07 48° E 07:14:07 48° E 07:28:03 10° ENE
CENTAUR R/B 4.4 08:07:43 19° N 08:07:43 19° N 08:09:35 10° NNE
SL-16 R/B 3.9 08:26:21 10° N 08:31:17 30° ENE 08:36:11 10° SE
Cosmos 2263 Rocket 2.2 08:52:04 71° SE 08:52:17 72° ESE 08:57:56 10° NNE
Okean 2 Rocket 4.4 08:49:17 10° N 08:51:57 34° NNE 08:51:57 34° NNE
SWIFT 3.6 08:58:17 37° ESE 08:58:17 37° ESE 09:00:58 10° E
Cosmos 1867 4.4 08:59:11 39° NNW 08:59:11 39° NNW 09:03:01 10° NNE
ATLAS 3B R/B 3.5 09:02:26 32° NW 09:02:26 32° NW 09:07:21 10° N
Cosmos 1092 Rocket 3.9 09:10:44 30° S 09:14:10 83° W 09:20:30 10° N
Skynet4D Del rocket 4.0 09:12:25 51° W 09:14:17 77° SSW 09:21:51 10° ESE
CZ-4B R/B 3.3 09:17:44 24° N 09:17:44 24° N 09:19:14 10° N
FUSE 4.4 09:18:10 43° S 09:19:06 48° SSE 09:24:13 10° E
ATLAS 5 CENTAUR R/B 3.5 09:21:02 38° WNW 09:21:14 38° WNW 09:24:53 10° N
ASTRO E2 3.2 09:24:44 45° SSE 09:24:44 45° SSE 09:27:49 10° SE
Cosmos 2026 Rocket 3.9 09:18:48 10° S 09:24:56 85° E 09:31:02 10° N
STARLINK-1145 4.5 09:26:58 30° SSE 09:27:44 34° SE 09:30:54 10° ENE
H-2A R/B 4.1 09:24:37 10° NE 09:28:05 30° E 09:31:29 10° SSE
STARLINK-1161 4.4 09:28:42 30° SSE 09:29:33 36° SE 09:32:46 10° ENE
GPS 2-14 Rocket1 2.7 09:30:58 59° SSW 09:31:25 65° S 09:35:27 10° E
STARLINK-1160 4.3 09:30:29 31° SSE 09:31:25 38° SE 09:34:41 10° NE
ALOS 4.2 09:27:23 10° NE 09:31:25 29° E 09:35:26 10° SSE
Fermi 3.9 09:30:57 53° SSW 09:31:33 60° SSE 09:35:38 10° E
Cosmos 1975 Rocket 4.4 09:27:44 10° SSE 09:31:45 39° E 09:35:48 10° NNE
CCE 1 Rocket 4.0 09:31:48 45° WSW 09:33:02 60° SSW 09:39:54 10° ESE
Cosmos 1428 Rocket 4.4 09:28:31 10° S 09:34:37 88° W 09:40:47 10° N
Okean 1 Rocket 3.7 09:35:03 10° N 09:39:21 56° E 09:43:41 10° SSE
Lacrosse 5 2.9 09:36:58 12° S 09:41:27 44° ESE 09:46:15 10° NE
Star 48 S/N 10035-3 3.7 09:42:44 80° WSW 09:42:50 88° S 09:46:30 10° E
CZ-4B R/B 3.5 09:41:45 10° N 09:45:29 88° WNW 09:48:40 13° SSW
Cosmos 1378 3.0 09:44:27 11° S 09:47:58 87° W 09:51:41 10° N
BREEZE-M DEB (TANK) 3.4 09:48:18 10° NNW 09:52:07 65° NE 09:58:53 10° SE
Cosmos 1484 Rocket 2.6 09:50:31 10° NNE 09:54:15 84° ESE 09:57:57 10° S
CZ-2C R/B 3.1 09:50:33 10° NNW 09:54:31 30° WNW 09:56:04 24° WSW
Cosmos 1689 Rocket 2.2 09:54:46 10° S 09:57:40 46° W 10:00:34 10° NNW
FENGYUN 3A 4.0 09:55:09 10° NNE 10:00:30 69° ESE 10:05:50 10° S
Cosmos 1655 Rocket 4.3 09:56:22 10° S 10:02:43 74° E 10:09:02 10° N
CRYOSAT 2 4.5 10:00:10 10° N 10:05:01 80° E 10:09:53 10° S
CZ-4B R/B 3.1 10:01:49 10° N 10:06:13 65° WNW 10:10:41 10° SSW
SeaSat 1 3.2 10:09:25 10° SE 10:14:13 56° ENE 10:19:02 10° NNW
Cosmos 1844 Rocket 3.0 10:08:39 10° S 10:14:13 71° ESE 10:19:51 10° NNE
Cosmos 1437 Rocket 3.9 10:11:31 12° SW 10:14:27 26° W 10:17:53 10° NNW
SL-16 R/B 3.2 10:10:49 10° NW 10:15:05 22° WSW 10:19:22 10° SSW
STARLINK-1179 4.1 10:14:38 17° W 10:16:17 26° NW 10:18:58 10° NNE
Cosmos 1553 Rocket 4.4 10:10:01 10° N 10:16:21 72° E 10:22:44 10° S
STARLINK-1176 4.1 10:15:04 17° W 10:16:43 26° NW 10:19:24 10° N
STARLINK-1150 3.8 10:15:21 15° WSW 10:17:56 38° NW 10:21:16 10° NNE
STARLINK-1173 4.1 10:17:27 15° W 10:19:18 26° NW 10:22:00 10° NNE
STARLINK-1136 4.1 10:17:53 15° W 10:19:45 26° NW 10:22:26 10° N
STARLINK-1170 4.3 10:23:02 12° WSW 10:26:02 31° NW 10:29:20 10° NNE
STARLINK-1183 4.1 10:23:58 12° WSW 10:26:17 26° NW 10:28:56 10° N
STARLINK-1181 4.1 10:24:24 12° WSW 10:26:45 25° NW 10:29:24 10° N
STARLINK-1196 4.2 10:24:50 12° WSW 10:27:11 25° NW 10:29:49 10° N
STARLINK-1186 4.2 10:25:15 11° WSW 10:27:37 25° NW 10:30:14 10° N
STARLINK-1185 4.2 10:25:40 11° WSW 10:28:04 24° NW 10:30:41 10° N
STARLINK-1175 4.2 10:26:08 11° WSW 10:28:31 24° NW 10:31:06 10° N
STARLINK-1147 4.2 10:26:32 11° WSW 10:28:58 24° NW 10:31:34 10° N
Cosmos 1707 4.5 10:25:27 10° SSE 10:28:59 37° E 10:32:33 10° NNE
STARLINK-1146 4.3 10:26:59 11° WSW 10:29:26 23° NW 10:32:00 10° N
STARLINK-1152 4.3 10:27:25 10° WSW 10:29:53 23° NW 10:32:27 10° N
STARLINK-1195 4.3 10:27:52 10° WSW 10:30:19 23° NW 10:32:51 10° N
STARLINK-1137 4.3 10:28:18 10° WSW 10:30:48 23° NW 10:33:20 10° N
STARLINK-1142 4.3 10:28:43 10° WSW 10:31:13 22° NW 10:33:44 10° N
STARLINK-1127 4.3 10:29:12 10° WSW 10:31:41 22° NW 10:34:12 10° N
STARLINK-1184 4.4 10:29:39 10° WSW 10:32:09 22° NW 10:34:38 10° N
STARLINK-1193 4.4 10:30:08 10° W 10:32:35 21° NW 10:35:02 10° N
STARLINK-1194 4.4 10:30:36 10° W 10:33:02 21° NW 10:35:31 10° N
SKYMED 2 4.2 10:29:06 10° SSE 10:33:22 62° ENE 10:37:38 10° N
STARLINK-1151 4.4 10:31:51 10° WSW 10:34:42 25° NW 10:37:34 10° N
STARLINK-1133 4.5 10:33:27 10° WSW 10:36:16 24° NW 10:39:05 10° N
Palapa 6 Rocket 2.9 10:33:47 10° W 10:37:41 84° N 10:42:14 10° E
Cosmos 1603 3.7 10:32:43 10° NNW 10:38:17 67° WSW 10:43:53 10° S
SWIFT 2.8 10:34:27 10° W 10:38:34 49° SSW 10:42:39 10° ESE
Cosmos 1818 4.2 10:34:23 10° NW 10:39:15 34° WSW 10:44:04 10° S
Okean O Rocket 2.7 10:34:58 10° NNE 10:39:17 52° E 10:43:36 10° S
Meteor 1-22 Rocket 4.4 10:33:36 10° N 10:39:28 88° W 10:45:32 10° S
Atlas Centaur 2 4.4 10:38:21 10° SSE 10:40:28 12° SE 10:42:46 10° ESE
Meteor 1-21 4.3 10:35:05 10° SSW 10:40:47 64° W 10:46:32 10° N
Cosmos 1455 Rocket 3.3 10:37:06 10° N 10:41:33 80° E 10:46:00 10° S
ATLAS 5 CENTAUR R/B 2.7 10:36:12 10° NNW 10:42:42 78° WSW 10:49:50 10° SSE
